Wetterdaten: Mittwoch, 04.02.2015
Datum Zeit Temp. A. Feuchte A. Luftdruck Regen Wind Richtung Richtung Sonnenschein ET UV Solar Taupunkt Windchill Windben Empfang
04.02.2015 00:00 -7,7 C 73 % 1005,2 hPa 0,0 l/m 0,0 km/h (0 Bft) S-SW 201 0 min 0,000 mm 0,0 UV-I 0 W/m -11,7 C -7,7 C 0,0 km/h (0 Bft) 0,00 %
04.02.2015 00:15 -7,8 C 73 % 1005,1 hPa 0,0 l/m 0,0 km/h (0 Bft) S 190 0 min 0,000 mm 0,0 UV-I 0 W/m -11,8 C -7,8 C 0,0 km/h (0 Bft) 0,00 %
04.02.2015 00:30 -7,8 C 73 % 1005,3 hPa 0,0 l/m 0,0 km/h (0 Bft) S 188 0 min 0,000 mm 0,0 UV-I 0 W/m -11,8 C -7,8 C 0,0 km/h (0 Bft) 0,00 %
04.02.2015 00:45 -7,7 C 73 % 1005,4 hPa 0,0 l/m 0,0 km/h (0 Bft) SW 216 0 min 0,000 mm 0,0 UV-I 0 W/m -11,7 C -7,7 C 0,0 km/h (0 Bft) 0,00 %
04.02.2015 01:00 -7,7 C 73 % 1005,3 hPa 0,0 l/m 0,0 km/h (0 Bft) S 179 0 min 0,000 mm 0,0 UV-I 0 W/m -11,7 C -7,7 C 0,0 km/h (0 Bft) 0,00 %
04.02.2015 01:15 -7,9 C 73 % 1005,7 hPa 0,0 l/m 0,0 km/h (0 Bft) S-SW 205 0 min 0,000 mm 0,0 UV-I 0 W/m -11,9 C -7,9 C 0,0 km/h (0 Bft) 0,00 %
04.02.2015 01:30 -8,0 C 73 % 1005,4 hPa 0,0 l/m 0,0 km/h (0 Bft) S 184 0 min 0,000 mm 0,0 UV-I 0 W/m -12,0 C -8,0 C 0,0 km/h (0 Bft) 0,00 %
04.02.2015 01:45 -7,9 C 74 % 1005,8 hPa 0,0 l/m 0,0 km/h (0 Bft) S-SW 194 0 min 0,000 mm 0,0 UV-I 0 W/m -11,7 C -7,9 C 0,0 km/h (0 Bft) 0,00 %
04.02.2015 02:00 -8,0 C 73 % 1005,7 hPa 0,0 l/m 0,0 km/h (0 Bft) S-SW 201 0 min 0,000 mm 0,0 UV-I 0 W/m -12,0 C -8,0 C 0,0 km/h (0 Bft) 0,00 %
04.02.2015 02:15 -8,1 C 73 % 1005,9 hPa 0,0 l/m 0,0 km/h (0 Bft) S-SW 192 0 min 0,000 mm 0,0 UV-I 0 W/m -12,1 C -8,1 C 0,0 km/h (0 Bft) 0,00 %
04.02.2015 02:30 -8,5 C 74 % 1006,1 hPa 0,0 l/m 0,0 km/h (0 Bft) SW 216 0 min 0,000 mm 0,0 UV-I 0 W/m -12,3 C -8,5 C 0,0 km/h (0 Bft) 0,00 %
04.02.2015 02:45 -8,7 C 74 % 1006,0 hPa 0,0 l/m 0,0 km/h (0 Bft) S-SW 209 0 min 0,000 mm 0,0 UV-I 0 W/m -12,5 C -8,7 C 0,0 km/h (0 Bft) 0,00 %
04.02.2015 03:00 -8,5 C 73 % 1006,4 hPa 0,0 l/m 0,0 km/h (0 Bft) S-SW 202 0 min 0,000 mm 0,0 UV-I 0 W/m -12,4 C -8,5 C 0,0 km/h (0 Bft) 0,00 %
04.02.2015 03:15 -8,0 C 73 % 1006,1 hPa 0,0 l/m 0,0 km/h (0 Bft) S 188 0 min 0,000 mm 0,0 UV-I 0 W/m -12,0 C -8,0 C 0,0 km/h (0 Bft) 0,00 %
04.02.2015 03:30 -7,4 C 78 % 1006,0 hPa 0,0 l/m 0,0 km/h (0 Bft) W-SW 239 0 min 0,000 mm 0,0 UV-I 0 W/m -10,6 C -7,4 C 0,0 km/h (0 Bft) 0,00 %
04.02.2015 03:45 -7,2 C 77 % 1006,4 hPa 0,0 l/m 0,0 km/h (0 Bft) S-SW 207 0 min 0,000 mm 0,0 UV-I 0 W/m -10,5 C -7,2 C 0,0 km/h (0 Bft) 0,00 %
04.02.2015 04:00 -7,0 C 77 % 1006,1 hPa 0,0 l/m 0,0 km/h (0 Bft) W-SW 251 0 min 0,000 mm 0,0 UV-I 0 W/m -10,3 C -7,0 C 0,0 km/h (0 Bft) 0,00 %
04.02.2015 04:15 -7,4 C 76 % 1006,2 hPa 0,0 l/m 0,0 km/h (0 Bft) S-SW 195 0 min 0,000 mm 0,0 UV-I 0 W/m -10,9 C -7,4 C 0,0 km/h (0 Bft) 0,00 %
04.02.2015 04:30 -7,5 C 72 % 1006,3 hPa 0,0 l/m 0,0 km/h (0 Bft) S 184 0 min 0,000 mm 0,0 UV-I 0 W/m -11,7 C -7,5 C 0,0 km/h (0 Bft) 0,00 %
04.02.2015 04:45 -8,0 C 72 % 1006,4 hPa 0,0 l/m 0,0 km/h (0 Bft) S-SW 202 0 min 0,000 mm 0,0 UV-I 0 W/m -12,1 C -8,0 C 0,0 km/h (0 Bft) 0,00 %
04.02.2015 05:00 -8,3 C 71 % 1006,8 hPa 0,0 l/m 0,0 km/h (0 Bft) S-SW 208 0 min 0,000 mm 0,0 UV-I 0 W/m -12,6 C -8,3 C 0,0 km/h (0 Bft) 0,00 %
04.02.2015 05:15 -8,8 C 72 % 1006,9 hPa 0,0 l/m 0,0 km/h (0 Bft) S 185 0 min 0,000 mm 0,0 UV-I 0 W/m -12,9 C -8,8 C 0,0 km/h (0 Bft) 0,00 %
04.02.2015 05:30 -8,6 C 73 % 1007,0 hPa 0,0 l/m 0,0 km/h (0 Bft) S 186 0 min 0,000 mm 0,0 UV-I 0 W/m -12,5 C -8,6 C 0,0 km/h (0 Bft) 0,00 %
04.02.2015 05:45 -8,8 C 72 % 1007,1 hPa 0,0 l/m 0,0 km/h (0 Bft) S-SW 207 0 min 0,000 mm 0,0 UV-I 0 W/m -12,9 C -8,8 C 0,0 km/h (0 Bft) 0,00 %
04.02.2015 06:00 -9,1 C 73 % 1007,4 hPa 0,0 l/m 0,0 km/h (0 Bft) S-SW 213 0 min 0,000 mm 0,0 UV-I 0 W/m -13,0 C -9,1 C 0,0 km/h (0 Bft) 0,00 %
04.02.2015 06:15 -9,4 C 72 % 1007,3 hPa 0,0 l/m 0,0 km/h (0 Bft) S-SW 210 0 min 0,000 mm 0,0 UV-I 0 W/m -13,5 C -9,4 C 0,0 km/h (0 Bft) 0,00 %
04.02.2015 06:30 -9,3 C 72 % 1007,3 hPa 0,0 l/m 0,0 km/h (0 Bft) S-SW 201 0 min 0,000 mm 0,0 UV-I 0 W/m -13,4 C -9,3 C 0,0 km/h (0 Bft) 0,00 %
04.02.2015 06:45 -9,3 C 72 % 1007,7 hPa 0,0 l/m 0,0 km/h (0 Bft) S-SW 205 0 min 0,000 mm 0,0 UV-I 0 W/m -13,4 C -9,3 C 0,0 km/h (0 Bft) 0,00 %
04.02.2015 07:00 -8,9 C 72 % 1007,8 hPa 0,0 l/m 0,0 km/h (0 Bft) S-SW 203 0 min 0,000 mm 0,0 UV-I 0 W/m -13,0 C -8,9 C 0,0 km/h (0 Bft) 0,00 %
04.02.2015 07:15 -8,2 C 72 % 1007,8 hPa 0,0 l/m 0,0 km/h (0 Bft) S-SW 203 0 min 0,000 mm 0,0 UV-I 0 W/m -12,3 C -8,2 C 0,0 km/h (0 Bft) 0,00 %
04.02.2015 07:30 -7,6 C 76 % 1008,0 hPa 0,0 l/m 0,0 km/h (0 Bft) S-SW 210 0 min 0,000 mm 0,0 UV-I 0 W/m -11,1 C -7,6 C 0,0 km/h (0 Bft) 0,00 %
04.02.2015 07:45 -7,3 C 76 % 1008,1 hPa 0,0 l/m 0,0 km/h (0 Bft) S-SW 212 0 min 0,000 mm 0,0 UV-I 0 W/m -10,8 C -7,3 C 0,0 km/h (0 Bft) 0,00 %
04.02.2015 08:00 -7,1 C 76 % 1007,8 hPa 0,0 l/m 0,0 km/h (0 Bft) S-SW 210 0 min 0,000 mm 0,0 UV-I 21 W/m -10,6 C -7,1 C 0,0 km/h (0 Bft) 0,00 %
04.02.2015 08:15 -6,6 C 76 % 1007,8 hPa 0,0 l/m 0,0 km/h (0 Bft) SW 216 15 min 0,000 mm 0,0 UV-I 62 W/m -10,1 C -6,6 C 0,0 km/h (0 Bft) 0,00 %
04.02.2015 08:30 -6,2 C 76 % 1007,7 hPa 0,0 l/m 0,0 km/h (0 Bft) S-SW 212 0 min 0,000 mm 0,0 UV-I 50 W/m -9,7 C -6,2 C 0,0 km/h (0 Bft) 0,00 %
04.02.2015 08:45 -5,7 C 75 % 1007,8 hPa 0,0 l/m 0,0 km/h (0 Bft) SW 226 0 min 0,000 mm 1,0 UV-I 70 W/m -9,4 C -5,7 C 0,0 km/h (0 Bft) 0,00 %
04.02.2015 09:00 -5,5 C 75 % 1007,6 hPa 0,0 l/m 0,0 km/h (0 Bft) SW 228 0 min 0,000 mm 1,0 UV-I 75 W/m -9,2 C -5,5 C 0,0 km/h (0 Bft) 0,00 %
04.02.2015 09:15 -5,2 C 75 % 1007,7 hPa 0,0 l/m 0,0 km/h (0 Bft) SW 220 15 min 0,000 mm 1,0 UV-I 150 W/m -8,9 C -5,2 C 0,0 km/h (0 Bft) 0,00 %
04.02.2015 09:30 -5,0 C 75 % 1007,6 hPa 0,0 l/m 0,0 km/h (0 Bft) SW 221 15 min 0,000 mm 1,0 UV-I 170 W/m -8,7 C -5,0 C 0,0 km/h (0 Bft) 0,00 %
04.02.2015 09:45 -4,5 C 74 % 1007,5 hPa 0,0 l/m 0,0 km/h (0 Bft) S-SW 211 15 min 0,000 mm 1,0 UV-I 190 W/m -8,4 C -4,5 C 0,0 km/h (0 Bft) 0,00 %
04.02.2015 10:00 -3,9 C 72 % 1007,5 hPa 0,0 l/m 0,0 km/h (0 Bft) S-SW 192 0 min 0,000 mm 1,0 UV-I 160 W/m -8,2 C -3,9 C 0,0 km/h (0 Bft) 0,00 %
04.02.2015 10:15 -3,4 C 70 % 1007,5 hPa 0,0 l/m 0,0 km/h (0 Bft) S-SW 202 0 min 0,000 mm 1,0 UV-I 155 W/m -8,1 C -3,4 C 0,0 km/h (0 Bft) 0,00 %
04.02.2015 10:30 -2,8 C 68 % 1007,6 hPa 0,0 l/m 0,0 km/h (0 Bft) SW 216 15 min 0,000 mm 1,0 UV-I 214 W/m -7,9 C -2,8 C 0,0 km/h (0 Bft) 0,00 %
04.02.2015 10:45 -2,1 C 67 % 1007,6 hPa 0,0 l/m 0,0 km/h (0 Bft) S 184 15 min 0,000 mm 1,0 UV-I 239 W/m -7,4 C -2,1 C 0,0 km/h (0 Bft) 0,00 %
04.02.2015 11:00 -1,5 C 64 % 1007,6 hPa 0,0 l/m 0,0 km/h (0 Bft) S-SW 202 15 min 0,000 mm 2,0 UV-I 255 W/m -7,4 C -1,5 C 0,0 km/h (0 Bft) 0,00 %
04.02.2015 11:15 -1,9 C 65 % 1007,6 hPa 0,0 l/m 0,0 km/h (0 Bft) S-SW 213 15 min 0,000 mm 2,0 UV-I 250 W/m -7,6 C -1,9 C 0,0 km/h (0 Bft) 0,00 %
04.02.2015 11:30 -2,0 C 64 % 1007,6 hPa 0,0 l/m 0,0 km/h (0 Bft) W-SW 252 15 min 0,000 mm 2,0 UV-I 392 W/m -7,9 C -2,0 C 0,0 km/h (0 Bft) 0,00 %
04.02.2015 11:45 -2,6 C 61 % 1007,6 hPa 0,0 l/m 0,0 km/h (0 Bft) W-SW 250 15 min 0,000 mm 2,0 UV-I 433 W/m -9,1 C -2,6 C 0,0 km/h (0 Bft) 0,00 %
04.02.2015 12:00 -2,4 C 61 % 1007,7 hPa 0,0 l/m 0,0 km/h (0 Bft) SW 216 15 min 0,000 mm 2,0 UV-I 414 W/m -8,9 C -2,4 C 0,0 km/h (0 Bft) 0,00 %
04.02.2015 12:15 -2,5 C 61 % 1007,5 hPa 0,0 l/m 0,0 km/h (0 Bft) W-SW 254 15 min 0,000 mm 2,0 UV-I 417 W/m -9,0 C -2,5 C 0,0 km/h (0 Bft) 0,00 %
04.02.2015 12:30 -2,3 C 65 % 1007,6 hPa 0,0 l/m 0,0 km/h (0 Bft) W-SW 251 15 min 0,000 mm 2,0 UV-I 417 W/m -8,0 C -2,3 C 0,0 km/h (0 Bft) 0,00 %
04.02.2015 12:45 -1,6 C 63 % 1007,8 hPa 0,0 l/m 0,0 km/h (0 Bft) S-SW 209 15 min 0,000 mm 2,0 UV-I 417 W/m -7,7 C -1,6 C 0,0 km/h (0 Bft) 0,00 %
04.02.2015 13:00 -0,9 C 61 % 1007,8 hPa 0,0 l/m 0,0 km/h (0 Bft) SW 214 15 min 0,000 mm 2,0 UV-I 382 W/m -7,5 C -0,9 C 0,0 km/h (0 Bft) 0,00 %
04.02.2015 13:15 -0,8 C 61 % 1007,9 hPa 0,0 l/m 0,0 km/h (0 Bft) S-SW 208 15 min 0,000 mm 2,0 UV-I 358 W/m -7,4 C -0,8 C 0,0 km/h (0 Bft) 0,00 %
04.02.2015 13:30 -1,1 C 61 % 1007,7 hPa 0,0 l/m 0,0 km/h (0 Bft) SO 131 15 min 0,000 mm 2,0 UV-I 330 W/m -7,6 C -1,1 C 0,0 km/h (0 Bft) 0,00 %
04.02.2015 13:45 -1,7 C 64 % 1007,8 hPa 0,0 l/m 0,0 km/h (0 Bft) S 172 15 min 0,000 mm 2,0 UV-I 300 W/m -7,6 C -1,7 C 0,0 km/h (0 Bft) 0,00 %
04.02.2015 14:00 -1,6 C 62 % 1008,1 hPa 0,0 l/m 0,0 km/h (0 Bft) S 187 15 min 0,000 mm 2,0 UV-I 265 W/m -7,9 C -1,6 C 0,0 km/h (0 Bft) 0,00 %
04.02.2015 14:15 -1,1 C 62 % 1007,9 hPa 0,0 l/m 0,0 km/h (0 Bft) O-SO 119 15 min 0,000 mm 2,0 UV-I 224 W/m -7,4 C -1,1 C 0,0 km/h (0 Bft) 0,00 %
04.02.2015 14:30 -1,4 C 62 % 1008,1 hPa 0,0 l/m 0,0 km/h (0 Bft) S 185 0 min 0,000 mm 2,0 UV-I 182 W/m -7,7 C -1,4 C 0,0 km/h (0 Bft) 0,00 %
04.02.2015 14:45 -1,0 C 61 % 1008,1 hPa 0,0 l/m 0,0 km/h (0 Bft) W-SW 244 0 min 0,000 mm 1,0 UV-I 128 W/m -7,5 C -1,0 C 0,0 km/h (0 Bft) 0,00 %
04.02.2015 15:00 -1,1 C 61 % 1008,2 hPa 0,0 l/m 0,0 km/h (0 Bft) W 276 15 min 0,000 mm 1,0 UV-I 179 W/m -7,6 C -1,1 C 0,0 km/h (0 Bft) 0,00 %
04.02.2015 15:15 -1,3 C 62 % 1008,4 hPa 0,0 l/m 0,0 km/h (0 Bft) S-SW 203 15 min 0,000 mm 1,0 UV-I 217 W/m -7,6 C -1,3 C 0,0 km/h (0 Bft) 0,00 %
04.02.2015 15:30 -1,3 C 62 % 1008,6 hPa 0,0 l/m 0,0 km/h (0 Bft) S-SO 149 15 min 0,000 mm 1,0 UV-I 149 W/m -7,6 C -1,3 C 0,0 km/h (0 Bft) 0,00 %
04.02.2015 15:45 -1,3 C 63 % 1008,7 hPa 0,0 l/m 0,0 km/h (0 Bft) O 97 15 min 0,000 mm 1,0 UV-I 181 W/m -7,4 C -1,3 C 0,0 km/h (0 Bft) 0,00 %
04.02.2015 16:00 -1,4 C 62 % 1008,9 hPa 0,0 l/m 0,0 km/h (0 Bft) S-SO 156 15 min 0,000 mm 1,0 UV-I 111 W/m -7,7 C -1,4 C 0,0 km/h (0 Bft) 0,00 %
04.02.2015 16:15 -1,6 C 63 % 1009,3 hPa 0,0 l/m 0,0 km/h (0 Bft) S 190 15 min 0,000 mm 1,0 UV-I 80 W/m -7,7 C -1,6 C 0,0 km/h (0 Bft) 0,00 %
04.02.2015 16:30 -2,0 C 64 % 1009,8 hPa 0,0 l/m 0,0 km/h (0 Bft) S 179 0 min 0,000 mm 0,0 UV-I 40 W/m -7,9 C -2,0 C 0,0 km/h (0 Bft) 0,00 %
04.02.2015 16:45 -2,4 C 61 % 1010,6 hPa 0,0 l/m 0,0 km/h (0 Bft) S 175 0 min 0,000 mm 0,0 UV-I 12 W/m -8,9 C -2,4 C 0,0 km/h (0 Bft) 0,00 %
04.02.2015 17:00 -3,0 C 63 % 1011,0 hPa 0,0 l/m 0,0 km/h (0 Bft) S-SW 196 0 min 0,000 mm 0,0 UV-I 3 W/m -9,0 C -3,0 C 0,0 km/h (0 Bft) 0,00 %
04.02.2015 17:15 -3,3 C 65 % 1011,2 hPa 0,0 l/m 0,0 km/h (0 Bft) S 187 0 min 0,000 mm 0,0 UV-I 0 W/m -8,9 C -3,3 C 0,0 km/h (0 Bft) 0,00 %
04.02.2015 17:30 -3,7 C 68 % 1011,5 hPa 0,0 l/m 0,0 km/h (0 Bft) S-SW 202 0 min 0,000 mm 0,0 UV-I 0 W/m -8,7 C -3,7 C 0,0 km/h (0 Bft) 0,00 %
04.02.2015 17:45 -4,2 C 69 % 1011,8 hPa 0,0 l/m 0,0 km/h (0 Bft) S 177 0 min 0,000 mm 0,0 UV-I 0 W/m -9,0 C -4,2 C 0,0 km/h (0 Bft) 0,00 %
04.02.2015 18:00 -4,3 C 69 % 1012,0 hPa 0,0 l/m 0,0 km/h (0 Bft) S 188 0 min 0,000 mm 0,0 UV-I 0 W/m -9,1 C -4,3 C 0,0 km/h (0 Bft) 0,00 %
04.02.2015 18:15 -4,5 C 69 % 1012,3 hPa 0,0 l/m 0,0 km/h (0 Bft) S 187 0 min 0,000 mm 0,0 UV-I 0 W/m -9,3 C -4,5 C 0,0 km/h (0 Bft) 0,00 %
04.02.2015 18:30 -4,7 C 71 % 1012,5 hPa 0,0 l/m 0,0 km/h (0 Bft) S-SW 195 0 min 0,000 mm 0,0 UV-I 0 W/m -9,1 C -4,7 C 0,0 km/h (0 Bft) 0,00 %
04.02.2015 18:45 -5,0 C 73 % 1012,7 hPa 0,0 l/m 0,0 km/h (0 Bft) S-SW 199 0 min 0,000 mm 0,0 UV-I 0 W/m -9,1 C -5,0 C 0,0 km/h (0 Bft) 0,00 %
04.02.2015 19:00 -5,6 C 74 % 1013,1 hPa 0,0 l/m 0,0 km/h (0 Bft) S-SW 208 0 min 0,000 mm 0,0 UV-I 0 W/m -9,5 C -5,6 C 0,0 km/h (0 Bft) 0,00 %
04.02.2015 19:15 -5,8 C 75 % 1013,3 hPa 0,0 l/m 0,0 km/h (0 Bft) S 180 0 min 0,000 mm 0,0 UV-I 0 W/m -9,5 C -5,8 C 0,0 km/h (0 Bft) 0,00 %
04.02.2015 19:30 -5,4 C 75 % 1013,5 hPa 0,0 l/m 0,0 km/h (0 Bft) S-SW 201 0 min 0,000 mm 0,0 UV-I 0 W/m -9,1 C -5,4 C 0,0 km/h (0 Bft) 0,00 %
04.02.2015 19:45 -5,9 C 75 % 1013,6 hPa 0,0 l/m 0,0 km/h (0 Bft) S-SW 212 0 min 0,000 mm 0,0 UV-I 0 W/m -9,6 C -5,9 C 0,0 km/h (0 Bft) 0,00 %
04.02.2015 20:00 -6,4 C 76 % 1013,8 hPa 0,0 l/m 0,0 km/h (0 Bft) S-SW 211 0 min 0,000 mm 0,0 UV-I 0 W/m -9,9 C -6,4 C 0,0 km/h (0 Bft) 0,00 %
04.02.2015 20:15 -6,8 C 77 % 1014,1 hPa 0,0 l/m 0,0 km/h (0 Bft) S-SW 211 0 min 0,000 mm 0,0 UV-I 0 W/m -10,1 C -6,8 C 0,0 km/h (0 Bft) 0,00 %
04.02.2015 20:30 -7,0 C 79 % 1014,1 hPa 0,0 l/m 0,0 km/h (0 Bft) S-SW 211 0 min 0,000 mm 0,0 UV-I 0 W/m -10,0 C -7,0 C 0,0 km/h (0 Bft) 0,00 %
04.02.2015 20:45 -6,6 C 79 % 1014,3 hPa 0,0 l/m 0,0 km/h (0 Bft) S 190 0 min 0,000 mm 0,0 UV-I 0 W/m -9,6 C -6,6 C 0,0 km/h (0 Bft) 0,00 %
04.02.2015 21:00 -6,6 C 79 % 1014,3 hPa 0,0 l/m 0,0 km/h (0 Bft) S-SW 204 0 min 0,000 mm 0,0 UV-I 0 W/m -9,6 C -6,6 C 0,0 km/h (0 Bft) 0,00 %
04.02.2015 21:15 -6,9 C 79 % 1014,6 hPa 0,0 l/m 0,0 km/h (0 Bft) SW 214 0 min 0,000 mm 0,0 UV-I 0 W/m -9,9 C -6,9 C 0,0 km/h (0 Bft) 0,00 %
04.02.2015 21:30 -7,1 C 79 % 1014,8 hPa 0,0 l/m 0,0 km/h (0 Bft) SW 214 0 min 0,000 mm 0,0 UV-I 0 W/m -10,1 C -7,1 C 0,0 km/h (0 Bft) 0,00 %
04.02.2015 21:45 -7,0 C 79 % 1014,7 hPa 0,0 l/m 0,0 km/h (0 Bft) S 172 0 min 0,000 mm 0,0 UV-I 0 W/m -10,0 C -7,0 C 0,0 km/h (0 Bft) 0,00 %
04.02.2015 22:00 -6,4 C 79 % 1015,0 hPa 0,0 l/m 0,0 km/h (0 Bft) S 171 0 min 0,000 mm 0,0 UV-I 0 W/m -9,4 C -6,4 C 0,0 km/h (0 Bft) 0,00 %
04.02.2015 22:15 -6,3 C 78 % 1014,9 hPa 0,0 l/m 0,0 km/h (0 Bft) S-SW 198 0 min 0,000 mm 0,0 UV-I 0 W/m -9,5 C -6,3 C 0,0 km/h (0 Bft) 0,00 %
04.02.2015 22:30 -6,6 C 79 % 1015,2 hPa 0,0 l/m 0,0 km/h (0 Bft) S-SW 193 0 min 0,000 mm 0,0 UV-I 0 W/m -9,6 C -6,6 C 0,0 km/h (0 Bft) 0,00 %
04.02.2015 22:45 -6,7 C 79 % 1015,3 hPa 0,0 l/m 0,0 km/h (0 Bft) S 191 0 min 0,000 mm 0,0 UV-I 0 W/m -9,7 C -6,7 C 0,0 km/h (0 Bft) 0,00 %
04.02.2015 23:00 -6,6 C 78 % 1015,3 hPa 0,0 l/m 0,0 km/h (0 Bft) S-SW 203 0 min 0,000 mm 0,0 UV-I 0 W/m -9,8 C -6,6 C 0,0 km/h (0 Bft) 0,00 %
04.02.2015 23:15 -7,3 C 78 % 1015,4 hPa 0,0 l/m 0,0 km/h (0 Bft) SW 216 0 min 0,000 mm 0,0 UV-I 0 W/m -10,5 C -7,3 C 0,0 km/h (0 Bft) 0,00 %
04.02.2015 23:30 -7,2 C 78 % 1015,2 hPa 0,0 l/m 0,0 km/h (0 Bft) SW 216 0 min 0,000 mm 0,0 UV-I 0 W/m -10,4 C -7,2 C 0,0 km/h (0 Bft) 0,00 %
04.02.2015 23:45 -7,2 C 78 % 1015,6 hPa 0,0 l/m 0,0 km/h (0 Bft) SO 143 0 min 0,000 mm 0,0 UV-I 0 W/m -10,4 C -7,2 C 0,0 km/h (0 Bft) 0,00 %
_ Min-Zeit 06:15 11:45 00:15 - 00:00 - - - - - - 06:15 06:15 00:00 00:00
Minimum _ -9,4 C 61 % 1005,1 hPa - 0,0 km/h (0 Bft) - - - - - - -13,5 C -9,4 C 0,0 km/h (0 Bft) 0,00 %
_ Max-Zeit 13:15 20:30 23:45 00:00 00:00 - - 08:15 00:00 11:00 11:45 13:15 13:15 00:00 00:00
Maximum _ -0,8 C 79 % 1015,6 hPa 0,0 l/m 0,0 km/h
S-SW (0 Bft)
- - 15 min 0,000 mm 2,0 UV-I 433 W/m -7,4 C -0,8 C 0,0 km/h
S-SW (0 Bft)
0,00 %
Durchschnitt _ -5,4 C 71 % 1009,2 hPa #0,0 l/m 0,0 km/h (0 Bft) - - - #6:30 h #0,000 mm 1,5 UV-I 208 W/m -9,9 C -5,4 C 0,0 km/h (0 Bft) 0,00 %